Location: Caltech
(34.1382°N, 118.1253°W)
Time: 18:28:11
(UTC-08:00)

Iridium 3 - Visible Passes

Search period start: 02 December 2016 00:00
Search period end: 12 December 2016 00:00
Orbit: 776 x 779 km, 86.4° (Epoch: 02 December)

Date Brightness Start Highest point End Pass type
(mag) Time Alt. Az. Time Alt. Az. Time Alt. Az.
02 Dec 6.9 04:46:56 10° NNE 04:51:48 38° E 04:56:38 10° SSE visible
02 Dec 5.5 17:39:18 10° S 17:44:30 89° W 17:49:44 10° N visible
03 Dec 8.0 04:14:16 10° NNE 04:18:05 20° E 04:21:53 10° SE visible
03 Dec 6.1 05:54:07 10° NNW 05:58:52 37° W 06:03:36 10° SSW visible
03 Dec 5.8 17:06:06 10° SSE 17:11:04 47° E 17:16:02 10° NNE visible
03 Dec 8.3 18:48:51 10° WSW 18:51:59 16° WNW 18:55:08 10° NW visible
04 Dec 5.4 05:20:16 10° N 05:25:28 72° W 05:30:39 10° S visible
04 Dec 7.4 18:13:42 10° SW 18:18:14 30° W 18:22:49 10° NNW visible
05 Dec 6.1 04:46:48 10° N 04:51:57 58° E 04:57:04 10° SSE visible
05 Dec 6.2 17:39:29 10° SSW 17:44:37 59° W 17:49:46 10° N visible
06 Dec 7.3 04:13:46 10° NNE 04:18:19 30° E 04:22:51 10° SE visible
06 Dec 6.5 05:54:40 10° NNW 05:58:51 25° W 06:03:00 10° SW visible
06 Dec 5.5 17:05:56 10° S 17:11:05 71° E 17:16:18 10° N visible
06 Dec 8.7 18:51:38 10° W 18:52:19 10° WNW 18:52:57 10° WNW visible
07 Dec 8.2 03:41:29 10° NE 03:44:34 16° ENE 03:47:38 10° ESE visible
07 Dec 5.7 05:20:31 10° NNW 05:25:30 48° W 05:30:29 10° SSW visible
07 Dec 8.1 18:14:38 10° SW 18:18:28 21° W 18:22:20 10° NNW visible
08 Dec 5.4 04:46:59 11° N 04:52:04 87° E 04:57:16 10° S visible
08 Dec 7.0 17:39:55 10° SSW 17:44:46 39° W 17:49:38 10° NNW visible
09 Dec 6.5 04:15:09 20° NNE 04:18:30 44° E 04:23:27 10° SSE visible
09 Dec 6.9 05:55:43 11° NW 05:58:46 17° W 06:02:00 10° WSW visible
09 Dec 5.8 17:05:59 10° S 17:11:11 78° W 17:16:25 10° N visible
10 Dec 7.6 03:43:11 20° NE 03:44:49 23° E 03:48:55 10° SE visible
10 Dec 6.2 05:23:45 26° NW 05:25:31 32° W 05:30:05 10° SSW visible
10 Dec 8.4 18:16:08 10° WSW 18:18:44 14° WNW 18:21:22 10° NW visible
11 Dec 8.4 03:11:06 12° ENE 03:11:06 12° ENE 03:12:53 10° E visible
11 Dec 5.4 04:51:40 60° WNW 04:52:08 63° W 04:57:16 10° SSW visible
11 Dec 7.7 17:40:37 10° SW 17:44:58 27° W 17:49:20 10° NNW visible
